{"data":{"norad_id":48997,"epoch":"2026-05-25T04:05:46.764096Z","epoch_age_seconds":56216,"freshness":"FRESH","line1":"1 48997U 21060AG  26145.17068014  .00000147  00000+0  35171-3 0  9992","line2":"2 48997  87.9108 233.3419 0001900  93.2347 266.9001 13.16593204236598","mean_motion":13.16593204,"eccentricity":0.00019,"inclination_deg":87.9108,"raan_deg":233.3419,"arg_perigee_deg":93.2347,"mean_anomaly_deg":266.9001,"bstar":0.00035171,"rev_number":23659,"period_min":109.37319102249,"perigee_km":1196.3212859525,"apogee_km":1199.2001270809,"semimajor_km":7575.8977065167,"source":"CELESTRAK","updated_at":"2026-05-25T13:38:22.478948Z"}}